Regional Weather Roundup
Issued by NWS

Home | Current Version | Previous Version | Graphics & Text | Print | Product List | Glossary On
Versions: 1 2 3 4 5 6 7 8 9 10 11 12 13 14 15 16 17 18 19 20 21 22 23 24 25 26 27 28 29 30 31 32 33 34 35 36 37 38 39 40 41 42 43 44 45 46 47 48 49 50
000
ASUS43 KFSD 190410
RWRSD

WEATHER ROUNDUP FOR SOUTH DAKOTA
NATIONAL WEATHER SERVICE SIOUX FALLS SD
1000 PM CST SAT NOV 18 2017

NOTE: "FAIR" INDICATES FEW OR NO CLOUDS BELOW 12,000 FEET WITH NO
SIGNIFICANT WEATHER AND/OR OBSTRUCTIONS TO VISIBILITY.


SDZ001>005-009-010-012>017-190500-
NORTHWEST AND NORTH CENTRAL SOUTH DAKOTA

CITY           SKY/WX    TMP DP  RH WIND       PRES   REMARKS
BUFFALO          N/A     28  20  71 SW8       30.02F WCI  20
FAITH            N/A     31  23  72 W10       30.10S WCI  22
MOBRIDGE       CLOUDY    23  16  74 SE3       30.08S
$$

SDZ012>016-024>037-041>051-057-063-072>074-190500-
SOUTHWEST AND SOUTH CENTRAL SOUTH DAKOTA

CITY           SKY/WX    TMP DP  RH WIND       PRES   REMARKS
RAPID CTY ARPT CLOUDY    22  16  78 CALM      30.15S
PIERRE         CLOUDY    24  21  88 W5        30.12F WCI  18
CUSTER         CLOUDY    26  10  50 W3        30.11F
ELLSWORTH AFB  CLOUDY    26  18  71 W3        30.14S
PHILIP         CLOUDY    30  24  78 W9        30.15S WCI  22
PINE RIDGE     CLEAR     20  15  81 E5        30.19R WCI  13
SPEARFISH      FAIR      34  14  44 W8        30.12S WCI  27
WINNER         FAIR      28  22  78 SW8       30.16S WCI  20
$$

SDZ004>011-016>023-039-040-190500-
NORTHEAST SOUTH DAKOTA

CITY           SKY/WX    TMP DP  RH WIND       PRES   REMARKS
ABERDEEN       CLEAR     21  16  81 SW6       30.11F WCI  13
WATERTOWN      CLOUDY    15  12  88 W5        30.07S WCI   8
BROOKINGS      CLEAR     20  14  77 CALM      30.11R
SISSETON         N/A     17  10  74 W6        30.09F WCI   9
$$

SDZ017-020-022-023-036>040-048>070-190500-
SOUTHEAST SOUTH DAKOTA

CITY           SKY/WX    TMP DP  RH WIND       PRES   REMARKS
SIOUX FALLS    CLEAR     25  16  68 W10       30.13R WCI  15
HURON          CLOUDY    20  15  81 W8        30.14S WCI  10
CHAMBERLAIN    CLEAR     26  22  87 CALM      30.16R
MITCHELL       CLEAR     23  16  74 W7        30.17S WCI  15
YANKTON        CLEAR     25  19  78 W6        30.18R WCI  18
$$

ABBREVIATIONS USED IN REMARKS
   TC - TEMPERATURE IN CELSIUS
  WCI - WIND CHILL INDEX
   HX - HEAT INDEX
  VSB - VISIBILITY





USA.gov is the U.S. government's official web portal to all federal, state and local government web resources and services.